YAOGAN-30 04A (43081 NORAD) Tracking and Keplerian Element Data

This shows tracking and keplerian element data for the satellite.

Feedback or suggestion? Click here.




ElementValue
Catalog43081
NameYAOGAN-30 04A
Epoch Orbit38791
Epoch Day35.12271956
Epoch Year2025
RAAN297.2638
Inclination34.9961
Eccentricity0.0003429
Argument of Perigee127.5505
Mean Anonmoly232.5514
Mean Motion14.98732707
Decay Rate5.792E-05
L11 43081U 17085A 25035.12271956 .00005792 00000+0 47386-3 0 9998
L22 43081 34.9961 297.2638 0003429 127.5505 232.5514 14.98732707387918



Live tracking and technical data element details for YAOGAN-30 04A (NORAD 43081). YAOGAN-30 04A can be tracked NOW for your location showing map with azimuth and elevation plus other details from your city location.







IsCatalogInMostPopularTable: catalog: 43081, numindb: 615
Update: records affected: 1



GetName: 43081 YAOGAN-30 04A

Hit Count: updated at: Thu, 15 May 2025 19:54:40 GMT